Dewpoint
15 15 15 14 13 13 12 13 13 11 11 11 10 9 10 9 12 11 11 10 9 9 9 11 13 11 9 9 6 4 9 11 12 10 8 9 2 1 -1 -1 3 1 2
15 16 15 14 13 12 13 13 12 11 11 11 10 9 10 10 9 8 7 6 7 12 13 13 13 12 12 12 9 6 1 10 10 11 11 11 12 9 7 9 12 8 10
14 15 14 14 13 12 12 13 12 11 11 11 11 9 10 10 9 8 8 8 5 12 12 13 13 13 12 12 8 4 -2 2 10 11 12 13 11 12 12 12 12 11 11
14 15 15 14 13 12 12 13 12 11 11 11 11 9 10 10 10 10 11 8 3 1 -3 2 12 13 12 10 6 -2 -3 -2 3 9 12 12 12 12 12 12 11 11 12
14 15 15 13 11 12 12 10 10 9 8 9 10 9 8 10 9 11 12 8 6 10 7 0 -4 5 7 7 -1 4 1 -4 1 6 9 11 12 9 9 10 11 11 9
14 14 14 13 12 10 10 10 10 10 8 7 8 8 8 9 10 10 13 12 12 12 8 2 -2 5 -3 1 9 7 2 -4 3 7 8 9 11 4 0 4 8 9 7
14 14 14 13 12 12 9 9 8 10 8 8 8 6 7 10 12 12 12 12 12 11 8 -1 1 0 8 11 9 8 8 11 12 12 11 12 9 8 6 0 -1 2 6
14 14 15 12 14 14 13 10 6 8 7 8 6 7 9 12 13 13 12 11 11 10 7 1 4 6 10 9 10 9 9 11 11 9 11 11 8 7 10 8 6 6 7
13 14 14 11 12 13 14 14 11 7 7 7 9 10 11 11 12 12 12 11 10 9 5 1 3 9 10 9 8 9 9 10 9 11 10 9 8 8 12 11 10 10 10
12 13 13 14 14 13 11 13 13 12 7 8 9 11 12 11 11 11 12 11 9 9 3 -4 2 10 10 10 9 8 9 9 10 11 11 9 8 10 12 12 12 11 11
11 12 13 12 13 14 14 13 11 14 10 9 11 12 12 12 11 11 11 10 8 6 -3 -8 5 10 10 9 9 8 8 9 9 10 10 9 8 8 11 11 11 11 10
5 6 9 12 12 12 13 13 13 12 13 11 11 12 13 13 12 11 11 8 3 1 -4 -3 7 10 10 9 9 8 7 8 9 9 9 9 8 7 9 9 9 9 9
2 2 4 6 10 12 11 12 13 13 12 12 12 13 12 13 13 12 11 3 2 0 -3 2 5 8 8 9 8 8 7 7 8 8 9 8 8 7 8 8 8 8 9
3 3 3 2 3 4 9 10 11 13 13 12 12 13 12 12 13 12 10 9 9 5 7 9 10 10 10 9 9 8 8 7 7 8 8 8 7 8 8 8 8 8 7
3 4 4 1 -2 -2 -1 6 8 10 11 12 12 12 12 13 12 12 10 9 9 8 8 10 10 10 9 8 8 8 8 8 7 8 7 7 8 7 8 8 7 8 8
1 3 4 2 -1 -2 -2 -1 5 7 10 11 12 12 13 12 12 12 11 9 9 8 9 10 10 9 8 8 9 8 7 7 7 7 7 7 7 7 7 7 8 8 8
1 1 2 -2 -3 -3 -4 -0 4 6 8 11 11 12 13 13 12 12 12 10 9 9 9 10 10 9 8 8 8 8 8 7 7 7 8 6 7 7 7 8 8 7 7
3 2 2 -2 -3 -2 -3 -2 2 7 10 7 11 10 12 12 12 12 12 12 9 9 9 9 9 9 8 8 7 8 7 8 7 7 7 6 7 7 7 7 7 6 7
5 4 -2 -4 -4 -4 -2 -2 0 8 9 9 8 11 11 12 12 12 12 12 10 9 9 9 9 8 7 8 8 8 7 7 7 7 7 7 7 6 7 9 6 7 9
8 3 0 -0 -3 -3 -2 -1 3 8 9 9 8 6 12 12 11 12 12 12 12 9 10 10 9 8 8 8 8 8 8 8 7 7 6 5 6 6 6 7 6 9 8
8 8 6 3 -1 -1 -0 2 6 5 2 0 1 0 5 11 11 11 12 11 12 10 10 10 9 9 8 8 8 8 7 7 7 7 6 6 6 6 6 8 6 8 8
6 7 5 6 6 3 5 6 7 2 1 -0 0 1 5 10 10 10 11 11 11 11 10 10 9 9 8 8 7 7 7 7 7 7 7 6 6 6 7 7 7 7 7
6 6 7 7 6 9 9 9 9 8 7 5 3 5 8 6 9 10 11 11 11 11 10 10 9 8 8 8 8 7 7 7 6 7 6 7 5 6 6 7 7 6 6
5 6 6 7 7 8 8 9 8 8 6 5 6 8 6 4 9 10 11 10 10 10 11 9 10 9 8 8 8 8 7 6 6 6 6 6 6 5 6 7 6 6 6
4 5 6 7 6 7 7 8 8 8 8 7 6 7 5 8 9 9 10 9 9 9 10 10 9 9 9 8 7 7 7 6 6 5 6 6 6 6 5 5 6 6 6
2 4 5 6 6 7 7 7 7 7 7 7 7 7 7 8 8 8 8 8 8 9 9 9 8 9 9 9 7 8 7 6 6 5 5 5 5 6 6 5 5 5 5
Wind_Speed
11 14 18 17 17 16 18 16 14 13 14 12 10 8 10 14 14 12 11 11 10 10 10 10 10 11 11 15 14 12 11 12 13 13 12 11 11 13 14 14 12 12 11
13 14 19 18 16 17 18 17 15 14 14 13 11 10 12 14 12 12 11 10 10 11 8 8 12 14 14 15 12 10 8 9 10 11 10 12 12 11 13 14 16 13 13
12 16 20 18 16 16 17 17 15 14 14 14 13 10 13 13 12 12 12 12 12 11 9 11 14 15 14 9 6 4 5 10 11 13 12 13 13 13 13 14 15 13 12
11 16 18 18 17 17 17 17 16 15 15 14 13 12 13 12 10 9 13 14 16 11 6 6 9 9 7 5 3 3 7 11 12 12 9 8 9 12 12 11 12 13 11
10 13 18 18 18 17 14 16 17 16 15 14 13 13 12 12 11 12 16 17 16 8 6 6 9 10 9 7 4 5 8 12 14 14 9 7 6 9 8 9 9 8 6
10 11 15 17 18 18 17 15 17 17 16 15 15 14 13 13 13 14 18 14 11 7 5 6 8 6 8 10 10 10 10 15 17 9 9 12 8 5 6 8 8 6 4
11 12 14 19 19 17 17 16 16 17 17 17 16 15 15 15 15 17 15 11 11 8 6 6 8 12 14 13 10 11 13 16 17 16 13 7 6 7 6 5 9 8 5
12 11 11 20 19 17 17 16 16 17 17 17 17 17 16 16 17 16 13 9 11 10 7 8 12 17 15 13 12 11 14 15 16 11 8 7 6 8 9 11 12 12 11
12 12 11 15 19 19 18 18 17 18 18 18 17 18 17 17 17 15 14 13 11 12 9 10 16 18 17 13 10 13 15 13 12 7 7 11 9 15 11 13 14 16 14
13 13 13 12 15 18 22 21 19 19 20 20 19 19 18 18 16 15 14 14 12 13 10 14 20 19 16 14 13 13 13 12 10 10 8 11 8 13 12 16 17 15 13
15 15 15 16 16 15 17 20 22 21 22 22 20 21 19 18 18 17 15 17 14 14 11 16 24 18 16 15 13 11 16 11 8 6 9 11 7 15 12 11 11 12 10
16 16 16 17 18 18 17 20 20 24 24 25 24 24 22 18 16 11 16 17 13 12 15 18 26 21 17 16 14 12 14 12 8 8 9 13 10 14 15 11 12 12 11
20 19 19 17 17 19 19 18 21 25 26 27 25 26 25 20 18 18 19 15 14 13 17 23 24 21 17 14 15 10 12 12 10 8 12 9 11 14 15 15 11 10 9
25 23 22 22 20 20 18 21 19 20 25 29 30 30 27 27 26 18 13 14 14 15 18 19 17 17 17 15 14 15 14 11 8 9 9 14 10 12 14 12 11 8 13
28 29 29 29 29 25 23 20 22 22 23 25 30 32 31 29 30 20 16 15 15 16 18 19 17 21 22 17 15 15 15 11 8 6 8 11 11 9 9 12 8 10 9
26 29 32 34 35 36 35 32 24 24 21 22 25 30 34 34 33 25 20 19 17 17 18 21 20 18 21 19 14 15 18 13 11 9 7 14 11 10 8 11 11 10 8
23 25 27 30 30 32 33 33 29 25 32 24 25 28 35 34 35 29 25 22 21 19 19 19 20 17 23 19 16 14 13 11 15 12 12 13 12 11 11 10 11 12 8
20 21 22 25 26 26 31 32 31 26 22 30 27 24 29 30 34 32 31 25 21 23 24 22 22 22 23 21 17 17 17 14 13 11 12 15 13 13 13 13 11 9 13
15 19 24 28 29 28 29 34 31 26 23 23 28 28 26 28 28 32 32 31 27 26 26 25 24 24 22 26 17 20 18 17 14 18 17 17 17 16 15 15 14 15 17
11 17 20 23 26 28 29 32 31 26 24 20 21 27 28 28 29 28 30 33 31 28 27 28 23 29 24 22 22 19 17 15 15 16 17 18 21 17 19 18 18 22 19
4 7 11 16 22 26 30 32 30 32 29 28 26 24 25 28 29 29 29 28 33 34 31 27 25 24 31 27 25 20 19 17 15 14 15 19 21 22 20 20 20 17 17
10 8 9 11 13 21 25 27 29 29 28 28 26 25 21 23 28 31 30 28 28 31 34 30 29 28 27 33 32 26 16 17 19 20 18 20 23 24 23 22 21 20 18
4 4 3 6 15 19 22 24 20 20 24 23 24 24 22 22 24 26 28 28 27 29 30 35 36 33 35 34 31 23 12 11 23 23 24 17 24 27 27 26 25 25 23
8 6 7 4 7 13 20 22 22 24 22 23 21 22 26 24 24 23 23 25 25 26 34 34 33 35 35 38 39 29 20 16 15 13 28 26 20 29 29 29 30 28 24
13 10 9 9 11 9 8 15 18 17 17 17 19 20 23 23 25 25 22 24 23 24 29 31 36 40 39 39 43 41 31 25 16 15 14 29 29 26 32 33 30 28 28
16 15 13 11 13 14 13 11 9 9 10 11 12 13 16 20 23 25 24 24 27 25 26 26 29 33 33 39 41 44 45 40 35 28 19 15 36 36 32 34 34 34 34
Wind_Direction
159 192 176 178 169 175 177 179 173 172 173 175 172 159 152 146 147 148 145 144 136 131 141 143 140 144 136 132 121 119 127 134 135 133 133 127 129 124 121 119 107 126 122
163 179 179 186 175 178 179 183 183 181 177 182 183 173 166 157 158 163 164 162 147 150 150 169 159 147 139 137 127 117 137 143 133 131 132 131 130 129 131 127 142 126 121
164 192 182 190 180 182 183 188 189 182 185 191 192 179 172 172 172 168 174 172 164 157 143 131 144 146 146 157 153 154 168 173 141 123 113 119 125 123 126 129 128 124 128
167 202 183 189 193 186 187 192 193 190 191 193 192 184 178 180 178 181 174 165 155 159 174 192 181 182 189 191 212 211 182 174 168 128 91 112 129 128 122 125 128 130 119
159 208 192 196 201 196 190 193 196 194 193 192 190 190 191 192 190 184 176 167 167 167 183 216 221 219 234 221 160 138 168 169 161 130 157 138 128 157 151 142 139 144 139
171 179 204 203 198 206 200 201 199 198 197 196 197 194 195 197 197 195 183 183 194 198 222 239 224 210 162 151 134 129 122 135 125 130 152 161 148 166 196 200 192 177 163
174 176 216 201 199 202 204 205 207 201 199 199 201 202 201 198 191 189 197 214 213 215 226 225 201 168 152 146 153 146 132 133 137 148 132 127 169 117 114 166 207 208 170
177 178 203 194 198 206 206 207 206 206 201 201 201 201 199 199 193 194 211 230 223 225 219 200 171 165 156 155 144 157 142 142 130 120 136 148 131 147 129 112 119 142 149
187 181 187 206 203 206 209 212 211 209 206 204 204 201 201 202 205 209 216 235 238 228 225 210 176 171 166 165 173 159 155 147 138 153 174 130 130 146 122 146 144 143 144
199 195 196 201 219 212 214 212 212 213 209 209 209 207 204 206 212 217 224 238 247 228 229 199 177 175 181 177 186 188 176 156 160 174 146 153 151 165 129 132 137 140 149
207 211 204 203 212 216 213 223 217 215 213 211 211 210 210 209 211 219 228 244 237 225 223 183 173 180 184 191 193 194 190 161 200 184 201 182 177 187 163 149 150 151 165
216 220 213 212 208 210 225 219 223 220 211 212 211 212 211 202 201 219 231 229 222 220 180 175 170 183 180 189 195 198 179 184 210 197 213 201 198 204 191 196 203 208 208
228 222 222 210 212 210 215 226 228 216 216 212 213 211 205 203 201 202 223 213 206 194 173 162 173 186 178 200 196 179 161 172 178 193 228 213 222 203 202 204 199 203 198
235 227 216 217 218 216 213 220 226 229 219 216 211 210 206 203 204 200 197 193 187 184 173 174 185 185 184 187 184 173 163 174 177 185 223 213 198 184 204 208 203 196 206
239 234 227 223 222 223 228 220 221 224 234 224 218 214 207 201 210 199 192 191 188 192 187 186 179 195 200 190 201 190 176 169 169 212 213 186 183 191 187 177 170 162 156
232 235 239 237 240 237 247 237 223 223 219 234 223 216 208 217 217 212 195 192 192 193 188 194 183 215 199 191 185 192 194 189 165 189 233 193 192 203 188 172 174 167 175
233 240 242 244 241 241 237 225 219 224 223 210 228 220 214 223 218 218 213 197 194 191 188 206 190 197 198 197 204 182 175 208 179 215 212 196 194 185 186 177 182 187 188
229 225 234 235 237 233 228 224 216 216 230 221 217 221 220 227 219 219 218 212 198 194 188 209 192 193 200 186 205 172 189 190 191 223 222 199 196 191 181 191 200 191 161
240 237 239 241 237 233 226 226 222 212 214 228 218 217 218 219 223 222 226 219 203 198 192 200 208 198 202 194 194 191 193 195 187 207 214 198 204 197 202 195 183 179 168
252 249 242 237 231 224 218 218 218 212 208 208 226 219 218 217 225 228 227 230 218 200 199 195 209 197 194 196 198 199 197 194 194 215 221 204 207 202 206 202 202 187 183
226 259 238 232 222 212 211 206 209 216 218 224 226 228 220 218 223 222 226 226 226 211 207 203 195 201 198 201 195 187 197 193 197 203 222 208 211 209 212 209 209 212 213
227 226 221 207 210 202 205 198 210 216 221 226 226 227 222 221 223 220 221 227 224 224 214 216 203 194 194 206 200 193 184 203 198 200 213 215 216 216 216 215 218 224 234
181 182 186 209 190 182 189 189 186 193 207 207 220 219 215 221 215 219 221 228 227 226 226 219 213 212 203 205 210 203 195 208 217 210 217 214 215 217 221 222 223 228 236
93 149 141 139 196 196 195 190 192 194 203 209 216 221 222 225 217 219 218 224 233 234 223 228 234 231 221 211 205 206 217 209 201 215 223 221 219 217 220 220 227 230 230
81 109 143 141 143 148 189 191 183 182 188 198 208 216 221 218 223 223 219 230 231 234 233 229 225 230 228 228 220 217 208 204 208 207 215 219 225 226 220 226 227 231 233
71 77 100 125 136 145 141 153 176 195 203 208 216 219 226 225 226 229 228 225 228 233 230 233 233 238 238 233 231 224 218 210 210 211 216 236 229 227 230 224 230 232 237
Height
1483 1482 1485 1487 1489 1493 1496 1499 1501 1503 1506 1509 1511 1512 1513 1514 1515 1517 1519 1521 1523 1523 1524 1525 1527 1528 1529 1531 1532 1533 1535 1535 1536 1537 1538 1539 1540 1541 1542 1543 1543 1545 1546
1483 1482 1484 1488 1490 1493 1496 1499 1501 1503 1506 1509 1511 1512 1514 1515 1516 1518 1520 1522 1524 1525 1525 1526 1527 1529 1530 1532 1534 1535 1537 1538 1538 1539 1540 1541 1542 1543 1544 1544 1546 1547 1547
1483 1483 1484 1488 1490 1493 1497 1500 1502 1504 1506 1509 1511 1513 1514 1516 1518 1519 1521 1522 1524 1526 1527 1528 1529 1530 1532 1533 1535 1536 1538 1539 1541 1542 1542 1543 1544 1545 1545 1546 1547 1548 1550
1484 1483 1486 1487 1490 1493 1496 1499 1502 1504 1507 1509 1511 1513 1514 1516 1518 1519 1521 1523 1525 1527 1528 1529 1531 1532 1533 1534 1535 1536 1537 1539 1542 1544 1545 1547 1546 1546 1547 1548 1549 1550 1552
1484 1484 1486 1488 1490 1493 1496 1499 1502 1504 1506 1509 1511 1513 1515 1517 1518 1519 1521 1523 1526 1527 1529 1529 1531 1532 1533 1534 1535 1536 1537 1539 1543 1546 1549 1549 1549 1548 1549 1550 1552 1553 1554
1484 1486 1486 1488 1490 1492 1496 1498 1501 1504 1506 1508 1511 1513 1515 1516 1518 1520 1522 1524 1526 1527 1528 1529 1530 1532 1533 1534 1536 1537 1538 1540 1544 1548 1549 1549 1549 1549 1550 1551 1552 1554 1555
1485 1486 1485 1487 1489 1492 1495 1497 1500 1503 1505 1508 1511 1512 1514 1515 1518 1520 1522 1524 1525 1527 1528 1529 1530 1532 1534 1535 1538 1539 1540 1542 1544 1547 1548 1550 1550 1550 1551 1551 1552 1555 1556
1484 1486 1486 1486 1488 1491 1494 1497 1499 1502 1504 1507 1510 1512 1514 1515 1517 1519 1521 1523 1525 1526 1528 1529 1531 1533 1535 1537 1539 1541 1542 1544 1546 1548 1549 1549 1551 1552 1553 1553 1554 1556 1558
1482 1483 1486 1485 1487 1490 1493 1495 1498 1501 1504 1506 1509 1511 1513 1515 1517 1518 1520 1522 1524 1525 1527 1528 1531 1533 1535 1538 1541 1543 1544 1546 1549 1548 1549 1550 1552 1554 1554 1555 1556 1558 1559
1481 1482 1485 1487 1487 1489 1490 1493 1496 1499 1502 1505 1507 1510 1512 1515 1516 1518 1519 1521 1522 1524 1526 1527 1530 1533 1536 1538 1542 1544 1546 1548 1548 1549 1550 1552 1555 1555 1556 1557 1558 1559 1559
1478 1480 1483 1485 1488 1489 1490 1491 1494 1497 1500 1503 1506 1508 1511 1513 1515 1516 1518 1518 1520 1522 1524 1526 1530 1533 1536 1538 1541 1544 1547 1550 1549 1550 1551 1553 1556 1556 1557 1558 1559 1560 1562
1475 1477 1480 1483 1485 1488 1489 1489 1492 1494 1496 1500 1502 1505 1508 1511 1513 1515 1516 1517 1518 1520 1522 1525 1530 1533 1536 1538 1541 1544 1547 1550 1550 1551 1551 1553 1556 1558 1559 1559 1560 1562 1563
1473 1474 1476 1478 1481 1483 1487 1489 1488 1490 1493 1496 1499 1502 1505 1509 1511 1513 1514 1515 1517 1519 1522 1526 1529 1532 1537 1538 1540 1543 1547 1551 1553 1553 1551 1554 1556 1557 1559 1560 1561 1562 1563
1469 1470 1472 1473 1476 1478 1482 1485 1487 1487 1489 1492 1495 1499 1503 1506 1508 1511 1513 1514 1517 1518 1522 1525 1529 1533 1536 1537 1540 1543 1546 1549 1552 1552 1551 1553 1555 1557 1558 1559 1560 1560 1562
1462 1466 1466 1467 1470 1473 1476 1481 1484 1486 1485 1487 1490 1494 1499 1501 1504 1509 1512 1514 1516 1518 1522 1525 1528 1531 1533 1536 1539 1542 1545 1548 1551 1550 1551 1553 1554 1556 1558 1559 1560 1561 1562
1454 1457 1460 1461 1464 1467 1470 1474 1479 1482 1483 1484 1486 1489 1494 1497 1500 1504 1509 1512 1515 1518 1522 1523 1527 1528 1531 1535 1538 1540 1543 1546 1549 1552 1550 1553 1554 1557 1558 1560 1561 1562 1563
1447 1450 1452 1455 1457 1459 1462 1466 1473 1477 1477 1481 1482 1485 1488 1492 1496 1500 1505 1509 1512 1516 1520 1521 1524 1527 1530 1534 1536 1540 1542 1545 1548 1549 1550 1552 1555 1557 1558 1560 1561 1562 1564
1442 1443 1445 1448 1450 1453 1456 1460 1465 1470 1472 1473 1477 1481 1484 1487 1492 1497 1501 1504 1509 1512 1516 1518 1521 1525 1528 1533 1534 1538 1542 1545 1547 1548 1549 1552 1554 1556 1558 1560 1562 1562 1564
1437 1436 1438 1440 1444 1447 1451 1454 1459 1464 1468 1468 1472 1477 1480 1484 1487 1492 1496 1501 1505 1508 1512 1515 1517 1522 1526 1531 1534 1537 1540 1543 1546 1546 1547 1551 1553 1556 1557 1558 1561 1562 1563
1430 1430 1432 1434 1436 1440 1444 1449 1453 1457 1461 1464 1467 1471 1477 1480 1484 1488 1492 1496 1500 1505 1508 1511 1514 1519 1524 1528 1533 1536 1538 1541 1543 1544 1546 1549 1552 1554 1556 1557 1560 1560 1561
1426 1427 1427 1429 1431 1434 1437 1442 1447 1449 1455 1459 1462 1467 1471 1476 1480 1484 1487 1491 1495 1499 1504 1508 1513 1516 1521 1525 1529 1534 1536 1539 1541 1543 1543 1547 1550 1552 1554 1556 1558 1559 1560
1421 1422 1422 1424 1428 1430 1434 1438 1441 1446 1450 1455 1458 1462 1467 1471 1476 1479 1482 1486 1490 1494 1500 1502 1507 1513 1518 1520 1523 1530 1533 1536 1537 1540 1542 1544 1547 1550 1552 1554 1556 1558 1559
1420 1420 1421 1421 1423 1427 1430 1434 1438 1442 1445 1449 1453 1458 1463 1466 1471 1475 1478 1482 1485 1490 1494 1498 1501 1506 1511 1515 1519 1525 1528 1531 1534 1536 1539 1542 1543 1546 1549 1551 1553 1555 1557
1418 1419 1419 1421 1422 1424 1426 1430 1434 1437 1441 1445 1450 1454 1458 1462 1466 1470 1474 1477 1482 1485 1488 1493 1497 1501 1506 1507 1513 1518 1521 1524 1528 1533 1535 1538 1541 1542 1545 1547 1549 1551 1553
1417 1418 1419 1420 1419 1423 1426 1428 1431 1434 1438 1441 1445 1449 1453 1458 1462 1466 1470 1474 1477 1481 1484 1487 1491 1495 1499 1503 1505 1510 1515 1517 1521 1526 1528 1533 1538 1539 1540 1543 1545 1547 1549
1418 1418 1418 1419 1420 1421 1423 1426 1430 1433 1436 1438 1442 1445 1449 1453 1458 1461 1465 1469 1473 1475 1479 1483 1487 1490 1493 1497 1501 1504 1507 1507 1508 1516 1524 1524 1529 1533 1536 1538 1540 1543 1544